Home   Weather   Yaoundé   Past weeks
Flag for Cameroon

Past Weather in Yaoundé, Cameroon — Yesterday and Last 2 Weeks

Now
72 °F

Passing clouds.


Feels Like: 67 °F
Forecast: 81 / 69 °F
Wind: 2 mph from North

Location: Yaounde Airport

Current Time: May 22, 2019 at 12:28:41 am

Latest Report: May 21, 2019 at 11:00 pm


Visibility: 4 mi

Pressure: 30.04 "Hg (27.65 "Hg at 717m altitude)

Humidity: 94%

Dew Point: 70 °F

Location of YaoundéLocation

Past Weather in Yaoundé — Graph

°F

Yaoundé Temperature Yesterday

Maximum temperature yesterday: 82 °F (at 3:00 pm)
Minimum temperature yesterday: 72 °F (at 5:00 am)
Average temperature yesterday: 75 °F

High & Low Weather Summary for the Past Weeks

 TemperatureHumidityPressure
High91 °F (May 15, 3:00 pm)100% (May 16, 2:00 pm)30.12 "Hg (May 16, 2:00 pm)
Low68 °F (May 17, 2:00 am)52% (May 15, 3:00 pm)29.92 "Hg (May 15, 3:00 pm)
Average76 °F87%30.01 "Hg
* Reported May 15 12:00 pm — May 21 11:00 pm, Yaoundé. Weather by CustomWeather, © 2019

Note: Actual official high and low records may vary slightly from our data, if they occured in-between our weather recording intervals... More about our weather records

Advertising

Yaoundé Weather History for the Previous 24 Hours

Scroll right to see more
 ConditionsComfort  
Time TempWeatherWind HumidityBarometerVisibility
11:00 pm
Tue, May 21
72 °FPassing clouds.2 mph94%30.04 "Hg4 mi
10:00 pm72 °FThunderstorms. Passing clouds.3 mph94%30.04 "Hg4 mi
9:00 pm72 °FThunderstorms. Passing clouds.6 mph94%30.04 "Hg4 mi
8:00 pm73 °FThunderstorms. Passing clouds.7 mph100%29.98 "Hg4 mi
7:00 pm75 °FThunderstorms. Passing clouds.2 mph94%30.01 "Hg4 mi
6:00 pm81 °FThunderstorms. Partly sunny.3 mph79%29.95 "Hg4 mi
5:00 pm81 °FThunderstorms. Partly sunny.6 mph79%29.95 "Hg5 mi
4:00 pm79 °FThunderstorms. Partly sunny.9 mph79%29.95 "Hg5 mi
3:00 pm82 °FPartly sunny.10 mph74%29.95 "HgN/A
10:00 am79 °FPartly sunny.8 mph79%30.07 "HgN/A
9:00 am77 °FPartly sunny.8 mph89%30.04 "HgN/A
8:00 am75 °FPartly sunny.6 mph94%30.04 "HgN/A
7:00 am73 °FPartly sunny.5 mph94%30.01 "Hg4 mi
6:00 am72 °FPassing clouds.2 mph100%30.01 "Hg4 mi
5:00 am72 °FPassing clouds.3 mph100%30.01 "Hg4 mi
4:00 am73 °FPassing clouds.3 mph94%29.98 "Hg5 mi
3:00 am73 °FPassing clouds.2 mph94%30.01 "Hg5 mi
2:00 am73 °FThunderstorms. Passing clouds.3 mph94%30.01 "Hg5 mi
1:00 am73 °FThunderstorms. Passing clouds.5 mph94%30.04 "Hg5 mi
12:00 am73 °FThunderstorms. Passing clouds.3 mph94%30.04 "Hg5 mi
Weather by CustomWeather, © 2019

See weather overview